Merced, CA

1:26 PM PDT on September 30, 2016 (GMT -0700)
Merced Municipal-Macready

Weather History for KMCE - January, 2014

Change the Weather History Date:

Sunday, January 26, 2014

  Actual Average Record
Temperature  
Mean Temperature 51 °F 46 °F  
Max Temperature 64 °F 55 °F 65 °F (2012)
Min Temperature 37 °F 37 °F 30 °F (2007)
Degree Days  
Heating Degree Days 14    
Month to date heating degree days 403  
Since 1 July heating degree days 1506  
Cooling Degree Days 0    
Month to date cooling degree days 0  
Year to date cooling degree days 0  
Growing Degree Days 2 (Base 50)    
Moisture  
Dew Point 29 °F    
Average Humidity 44    
Maximum Humidity 60    
Minimum Humidity 28    
Precipitation  
Precipitation 0.00 in 0.05 in 0.95 in (2005)
Month to date precipitation 0.00 2.36  
Year to date precipitation 0.00 2.36  
Since 1 July precipitation 1.01  
Snow  
Snow 0.00 in - - ()
Month to date snowfall 0.0  
Since 1 July snowfall 0.0  
Snow Depth 0.00 in    
Sea Level Pressure  
Sea Level Pressure 30.08 in    
Wind  
Wind Speed 3 mph (ENE)    
Max Wind Speed 8 mph    
Max Gust Speed 9 mph    
Visibility 8 miles    
Events      
T = Trace of Precipitation, MM = Missing Value Source: NWS Daily Summary

Daily Weather History Graph

Daily Weather History Graph

Search for Another Location

Airport or City:

Trip Planner

Search our weather history database for the weather conditions in past years. The results will help you decide how hot, cold, wet, or windy it might be!

Date:

Astronomy

Jan. 26, 2014 Rise Set
Actual Time 7:09 AM PST 5:20 PM PST
Civil Twilight 6:41 AM PST 5:47 PM PST
Nautical Twilight 6:10 AM PST 6:19 PM PST
Astronomical Twilight 5:39 AM PST 6:50 PM PST
Moon 2:51 AM PST (1/26) 1:14 PM PST (1/26)
Length of Visible Light 11h 06m
Length of Day
10h 10m
Waning Crescent, 23% of the Moon is Illuminated
Jan 26
Waning Crescent
Jan 30
New
Feb 6
First Quarter
Feb 14
Full
Feb 22
Last Quarter

Hourly Weather History & Observations

Time (PST) Temp. Windchill Dew Point Humidity Pressure Visibility Wind Dir Wind Speed Gust Speed Precip Events Conditions
12:53 AM 45.0 °F - 28.0 °F 52% 30.12 in 9.0 mi Calm Calm - N/A   Clear
1:53 AM 39.0 °F 35.7 °F 25.0 °F 57% 30.12 in 10.0 mi South 4.6 mph - N/A   Clear
2:53 AM 43.0 °F 41.3 °F 26.1 °F 51% 30.12 in 10.0 mi East 3.5 mph - N/A   Clear
3:53 AM 39.9 °F 36.7 °F 26.1 °F 58% 30.11 in 10.0 mi ESE 4.6 mph - N/A   Clear
4:53 AM 44.1 °F 40.8 °F 27.0 °F 51% 30.10 in 10.0 mi East 5.8 mph - N/A   Clear
5:53 AM 44.1 °F 42.5 °F 26.1 °F 49% 30.10 in 10.0 mi East 3.5 mph - N/A   Clear
6:53 AM 43.0 °F 41.3 °F 26.1 °F 51% 30.11 in 10.0 mi ESE 3.5 mph - N/A   Clear
7:53 AM 43.0 °F - 28.9 °F 58% 30.12 in 10.0 mi Calm Calm - N/A   Clear
8:53 AM 44.1 °F - 28.9 °F 55% 30.13 in 10.0 mi Calm Calm - N/A   Clear
9:53 AM 48.9 °F - 27.0 °F 43% 30.13 in 10.0 mi ENE 3.5 mph - N/A   Clear
10:53 AM 54.0 °F - 28.0 °F 37% 30.14 in 10.0 mi East 3.5 mph - N/A   Clear
11:53 AM 57.0 °F - 33.1 °F 40% 30.11 in 9.0 mi Calm Calm - N/A   Clear
12:53 PM 61.0 °F - 32.0 °F 34% 30.07 in 8.0 mi Calm Calm - N/A   Clear
1:53 PM 62.1 °F - 30.9 °F 31% 30.04 in 8.0 mi NNW 3.5 mph - N/A   Clear
2:53 PM 63.0 °F - 32.0 °F 31% 30.03 in 8.0 mi WNW 4.6 mph - N/A   Clear
3:53 PM 63.0 °F - 30.9 °F 30% 30.01 in 7.0 mi NW 4.6 mph - N/A   Clear
4:53 PM 64.0 °F - 30.9 °F 29% 30.03 in 7.0 mi WNW 4.6 mph - N/A   Clear
5:53 PM 60.1 °F - 33.1 °F 36% 30.04 in 8.0 mi WNW 3.5 mph - N/A   Clear
6:53 PM 55.0 °F - 32.0 °F 42% 30.05 in 8.0 mi Calm Calm - N/A   Clear
7:53 PM 50.0 °F - 34.0 °F 54% 30.06 in 7.0 mi NW 3.5 mph - N/A   Clear
8:53 PM 46.0 °F 44.8 °F 32.0 °F 58% 30.06 in 5.0 mi East 3.5 mph - N/A   Haze
9:53 PM 45.0 °F - 30.9 °F 58% 30.05 in 6.0 mi Calm Calm - N/A   Haze
10:53 PM 41.0 °F 39.0 °F 28.9 °F 62% 30.05 in 6.0 mi SE 3.5 mph - N/A   Haze
11:53 PM 39.9 °F 37.8 °F 30.0 °F 68% 30.07 in 7.0 mi East 3.5 mph - N/A   Clear